RADUGA 21 1 18631U 87100A 21018.44410065 -.00000299 00000-0 00000+0 0 9991 2 18631 14.0363 341.2534 0003236 55.7457 190.7801 1.00271099121264 SL-12 R/B(2) 1 18634U 87100D 21018.47063538 -.00000132 00000-0 00000-0 0 9993 2 18634 12.7414 336.7364 0012482 211.1334 329.3801 1.03400229125046